THOR AGENA B R/B, 1807

Orbit data source: Space-Track

THOR AGENA B R/B, 1807 is space debris in LEO originally from a launch on Mon, 29 Nov 1965 UTC launched from the Air Force Western Test Range (AFWTR). Debris objects in space refer to the collection of defunct objects orbiting the Earth. Examples of debris include non-operational satellites, rocket bodies, and fragments generated from explosions, collisions, or faulty payload assembly.

Loading next visibility...
Identifier
1807, 1965-098C
Orbit
LEO
Country
Flag of USUS
Related business
Manufacturer
LMSC
Mission
Spacecraft
Bus & Motor
AGENA B, Unknown motor
Mass
600 kg wet, 600 kg dry
Launch date (UTC)
1965-11-29 (60 years ago)
Launch vehicle
Unknown
Launch site
Air Force Western Test Range (AFWTR)
Object type
Payload
Rocket body
Debris
Shape & HBR
Unknown
Radar Cross Section
Large (>1 m²)

Expand to show TLE details & history
Last TLE update: 6 hours ago

TLE from 6 hours ago
0 THOR AGENA B R/B
1 01807U 65098C   26101.24507617  .00000407  00000-0  12949-3 0  9995
2 01807  79.8296  98.2245 1331220 166.5221 197.5427 12.28016888665088
Epoch: 2026-04-11T05:52Z
TLE epoch observation values (Epoch: 2026-04-11T05:52:54.581Z)
Latitude
-0.00001°
Longitude
170.52992°
Altitude
2,578.682 km
Speed
6.229 km/s
True Right ascension
06h 32m 53s
True Declination
0° 00' 00"
Sunlit
Object was in daylight at epoch
Visualization orbit readout
Latitude
Unknown
Longitude
Unknown
Altitude
Unknown
Speed
Unknown
Apparent Right ascension
Unknown
Apparent Declination
Unknown
Sunlit
N/A
Visualization observer readout
Local Sidereal Time
18:21:39
Azimuth
Unknown
Elevation
Unknown
Doppler factor
Unknown
Orbital elements
Apogee altitude
2,611.342 km
Perigee altitude
499.129 km
Semi-major axis
7,933.372 km
Eccentricity
0.13312
Inclination
79.8296°
RAAN
98.2245°
Arg. of periapsis
166.5221°
True anomaly
193.58009°
Mean anomaly
197.5427°
Eccentric anomaly
195.50389°
Mean motion
3.07154 °/min
Orbital period
117.2 mins
BSTAR
0.00012949
Loading maneuver chart data...
Computing Atmospheric mass density...
Loading historical data...
Loading historical data...
Loading historical data...
Loading historical data...
Loading historical data...
Loading historical data...
Loading historical data...

Documentation

Showing up to 5 results
|